This is the latest recevied weather packets stored in our database for station/object W6DSP. If no packets are shown the sender has not sent any weather packets the latest 10 day(s).
| Time | Temp. | Humidity | Pressure | Rain* | Wind** | Luminosity | Snow |
|---|---|---|---|---|---|---|---|
| 1777306970 | 19.44° C | 68% | 1014.2 hPa | 0 mm | - | - | - |
| 1777306254 | 19.44° C | 68% | 1014.3 hPa | 0 mm | - | - | - |
| 1777305551 | 19.44° C | 69% | 1014.1 hPa | 0 mm | - | - | - |
| 1777304049 | 17.78° C | 71% | 1014.7 hPa | 0 mm | - | - | - |
| 1777303293 | 17.78° C | 73% | 1014.8 hPa | 0 mm | - | - | - |
| 1777300362 | 16.11° C | 75% | 1014.5 hPa | 0 mm | - | - | - |
| 1777299618 | 15.56° C | 77% | 1014.5 hPa | 0 mm | - | - | - |
| 1777298924 | 14.44° C | 77% | 1014.8 hPa | 0 mm | - | - | - |
| 1777298198 | 14.44° C | 78% | 1015 hPa | 0 mm | - | - | - |
| 1777296737 | 13.33° C | 79% | 1015.5 hPa | 0 mm | - | - | - |
| 1777296037 | 13.33° C | 80% | 1015.6 hPa | 0 mm | - | - | - |
| 1777295288 | 12.78° C | 81% | 1016 hPa | 0 mm | - | - | - |
| 1777294572 | 12.22° C | 83% | 1015.9 hPa | 0 mm | - | - | - |
| 1777293841 | 11.67° C | 85% | 1015.8 hPa | 0 mm | - | - | - |
| 1777293103 | 11.11° C | 87% | 1016.2 hPa | 0 mm | - | - | - |
| 1777292389 | 10.56° C | 88% | 1016.2 hPa | 0 mm | - | - | - |
| 1777291675 | 10° C | 89% | 1016.4 hPa | 0 mm | - | - | - |
| 1777290954 | 10° C | 90% | 1016.2 hPa | 0 mm | - | - | - |
| 1777289496 | 8.89° C | 90% | 1015.9 hPa | 0 mm | - | - | - |
| 1777288066 | 8.33° C | 90% | 1016.3 hPa | 0 mm | - | - | - |
| 1777287348 | 8.33° C | 90% | 1016.5 hPa | 0 mm | - | - | - |
| 1777286613 | 8.33° C | 90% | 1016.6 hPa | 0 mm | - | - | - |
| 1777285861 | 8.33° C | 90% | 1016.8 hPa | 0 mm | - | - | - |
| 1777285147 | 8.33° C | 90% | 1016.9 hPa | 0 mm | - | - | - |
| 1777284432 | 8.33° C | 90% | 1017 hPa | 0 mm | - | - | - |
* Rain latest hour (hover to see other rain measurements)
** Current wind speed in m/s (hover to see current wind gust speed)